World > North America > United States > Mississippi

Lebanon, Mississippi Regional Weather

Lat: 34.57N, Lon: 89.34W
Wx Zone: MSZ002Web Search

Pass this page to a friend. Tell them to point their camera at the QR Code near the bottom of this page.

Feedback


°F Click to change Lebanon hourly weather to Imperial units.Click to change Lebanon hourly weather to Metric units. °C
Lebanon Weather Map
UTC Time: 5/17/2021, 01:22
Your Time:

Lebanon, MS Regional Weather

Expires:202105170200;;231488
ASUS44 KJAN 170110
RWRMS 

MISSISSIPPI HOURLY WEATHER ROUNDUP
NATIONAL WEATHER SERVICE JACKSON MS
800 PM CDT SUN MAY 16 2021

NOTE: "FAIR: INDICATES FEW OR NO CLOUDS BELOW 12,000 FEET WITH NO
SIGNIFICANT WEATHER AND/OR OBSTRUCTIONS TO VISIBILITY.


MSZ001>002-007>008-010>013-018>021-025>028-034>036-170200-
NORTHWEST MISSISSIPPI
  
CITY           SKY/WX    TMP DP  RH WIND       PRES   REMARKS
BATESVILLE     FAIR      72  63  73 SE3       30.06S                  
CLARKSDALE     CLEAR     77  55  47 SE7       30.05S                  
CLEVELAND      FAIR      77  56  48 SE7       30.04S                  
GREENWOOD      PTCLDY    76  57  51 SE6       30.07R                  
GREENVILLE     PTCLDY    77  58  51 S9        30.04R                  
OLIVE BRANCH   MOCLDY    75  57  53 SE5       30.06S                  
OXFORD         MOCLDY    72  55  56 CALM      30.09S                  
TUNICA         PTCLDY    72  57  60 SE8       30.05F                  
WINONA         FAIR      72  55  56 CALM      30.08R                  
$$


SKY/WX - Weather  TMP - Temperature  DP - Dew Point  RH - Relative Humidity
WIND - Wind Direction/Speed PRES - Barometric Pressure VSB - Visibility
WCI - Wind Chill Index E13G22 Wind - East Wind 13 mph/Gusts of 22 mph